Regional Weather Roundup
Issued by NWS State College, PA

Home | Current Version | Previous Version | Graphics & Text | Print | Product List | Glossary Off
Versions: 1 2 3 4 5 6 7 8 9 10 11 12 13 14 15 16 17 18 19 20 21 22 23 24 25 26 27 28 29 30 31 32 33 34 35 36 37 38 39 40 41 42 43 44 45 46 47 48 49 50

000
ASUS41 KCTP 030710
RWRCTP

REGIONAL WEATHER ROUNDUP
NATIONAL WEATHER SERVICE STATE COLLEGE PA
200 AM EST SAT DEC 03 2016

Note: "fair" indicates few or no clouds below 12,000 feet with no
significant weather and/or obstructions to visibility.

* = STATION THAT DOES NOT REPORT PRECIPITATION /E.G. RAIN...SNOW...ETC/
    THUNDER OR FOG.

PAZ002>004-007>009-013>016-020>023-029>032-030800-
WESTERN PENNSYLVANIA

CITY           SKY/WX    TMP DP  RH WIND       PRES   REMARKS
ERIE           CLOUDY    41  33  73 W15G24    30.16R
MEADVILLE      CLOUDY    35  30  82 W12G18    30.14R
FRANKLIN*        N/A     34  27  75 W13G22    30.15R
NEW CASTLE     CLOUDY    36  31  82 W7        30.20S
BEAVER COUNTY  NOT AVBL
BUTLER*        CLOUDY    36  28  75 W7        30.20S
PITTSBURGH INT CLOUDY    37  30  75 W10       30.20R
PITTSBURGH     CLOUDY    35  26  69 W10       30.19R
INDIANA*       CLOUDY    36  32  87 NW14G21   30.17S
LATROBE        CLOUDY    36  30  80 SW8       30.20S
WASHINGTON CO* CLEAR     34  27  75 W6        30.22R
$$

PAZ004>006-010>012-017>019-024>028-033>037-041-042-045-046-049>053-030800-
CENTRAL PENNSYLVANIA

CITY           SKY/WX    TMP DP  RH WIND       PRES   REMARKS
BRADFORD       LGT SNOW  33  32  96 NW12      30.03R FOG
DUBOIS         CLOUDY    34  29  82 W17G26    30.07R
CLEARFIELD     CLOUDY    36  31  82 W9G20     30.08R
JOHNSTOWN      CLOUDY    32  29  88 W15G31    30.09S
ALTOONA        CLOUDY    38  29  70 NW18G26   30.10R
STATE COLLEGE  CLOUDY    37  31  79 W16G22    30.06R
WILLIAMSPORT   LGT RAIN  40  33  76 NW9       30.02R
SELINSGROVE    NOT AVBL
FT INDIANTOWN  CLOUDY    42  29  61 W14G23    30.01S
CAPITAL CITY   NOT AVBL
HARRISBURG     NOT AVBL
YORK           NOT AVBL
$$

PAZ038>040-043-044-047-048-054-055-060>062-067>071-030800-
EASTERN PENNSYLVANIA

CITY           SKY/WX    TMP DP  RH WIND       PRES   REMARKS
SCRANTON       CLOUDY    38  30  73 W9        29.95S
MOUNT POCONO   CLOUDY    33  28  81 NW17G28   29.88R
ALLENTOWN      CLOUDY    43  29  57 W9        29.98R
QUAKERTOWN*    CLOUDY    41  30  65 W9        29.98R
READING        CLOUDY    42  29  59 W12       30.00R
LANCASTER      NOT AVBL
COATESVILLE    MOSUNNY   39  30  70 W9        30.03R
POTTSTOWN      CLOUDY    41  29  62 W10       30.01S
BLUE BELL      CLOUDY    41  30  65 W8        29.99R
DOYLESTOWN     CLOUDY    43  30  60 W12G18    29.97R
WILLOW GROVE   NOT AVBL
NORTH PHILA    CLOUDY    43  30  60 W12       30.01S
PHILADELPHIA   MOCLDY    42  30  62 W13       30.04R
$$



USA.gov is the U.S. government's official web portal to all federal, state and local government web resources and services.